Regional Weather Roundup
Issued by NWS

Home | Current Version | Previous Version | Graphics & Text | Print | Product List | Glossary On
Versions: 1 2 3 4 5 6 7 8 9 10 11 12 13 14 15 16 17 18 19 20 21 22 23 24 25 26 27 28 29 30 31 32 33 34 35 36 37 38 39 40 41 42 43 44 45 46 47 48 49 50
000
ASUS43 KIND 262200
RWRIN

WEATHER ROUNDUP FOR INDIANA
NATIONAL WEATHER SERVICE INDIANAPOLIS IN
600 PM EDT MON JUN 26 2017

NOTE: "FAIR" INDICATES FEW OR NO CLOUDS BELOW 12,000 FEET WITH NO
SIGNIFICANT WEATHER AND/OR OBSTRUCTIONS TO VISIBILITY.

* - STATION DOES NOT REPORT WEATHER SUCH AS PRECIPITATION OR FOG.

+ - STATION NOT QUALITY CONTROLLED BY THE NATIONAL WEATHER SERVICE.
    USE DATA WITH CAUTION...ESPECIALLY DEWPOINT AND RELATIVE
    HUMIDITY OBSERVATIONS.

INZ001>003-010>013-019-020-262300-
NORTHWEST INDIANA

CITY           SKY/WX    TMP DP  RH WIND       PRES   REMARKS
GARY /AIRPORT/ MOSUNNY   72  34  25 W15G29    30.03F
KNOX *+        CLOUDY    63  43  48 SW5       30.02F
MICHIGAN CITY+ SUNNY     68  46  45 N9G20     30.04R
MONTICELLO +   LGT RAIN  58  46  63 SW9G24    30.05R

$$

LMZ046-743>745-262300-
SOUTHERN LAKE MICHIGAN

STATION/POSITION TIME  TEMP    WIND        PRES    WAVE
                       AIR SEA DIR/SP/G            HT
                 (UTC) (F)     (DEG/KT/KT) (MB)    (FT)
BURNS HARBOR     2140   65      10/  9/ 11 1017.3F
MICHIGAN CITY    2130   67     340/ 11/ 15   N/A
5NW MICH CITY    2150   65 67  360/ 12/ 16   N/A     2

$$

INZ004-005-014>016-021>024-262300-
NORTH CENTRAL INDIANA

CITY           SKY/WX    TMP DP  RH WIND       PRES   REMARKS
ELKHART        PTSUNNY   70  43  37 W17G24    30.02S
GOSHEN         PTSUNNY   67  46  47 W12       30.01F
SOUTH BEND     MOSUNNY   69  45  41 NW17      30.02F

$$

INZ006>009-017-018-025>027-262300-
NORTHEAST INDIANA

CITY           SKY/WX    TMP DP  RH WIND       PRES   REMARKS
FORT WAYNE     NOT AVBL
KENDALLVILLE + CLOUDY    62  52  67 SW9       30.03F

$$

INZ028-029-035-036-043>045-051>053-262300-
WEST CENTRAL INDIANA

CITY           SKY/WX    TMP DP  RH WIND       PRES   REMARKS
CRAWFORDSVL +  CLOUDY    69  50  52 SW12G17   30.07F
GREENCASTLE +  CLOUDY    68  46  45 W3        30.10F
LAFAYETTE      PTSUNNY   70  50  49 W14G22    30.04F
TERRE HAUTE    CLOUDY    70  48  45 W13       30.11F

$$

INZ030>032-037>040-046>048-054>057-064-065-262300-
CENTRAL INDIANA

CITY           SKY/WX    TMP DP  RH WIND       PRES   REMARKS
GREENWOOD *+   PTSUNNY   70  45  41 W15G22    30.09F
INDIANAPOLIS   CLOUDY    71  48  43 W21G26    30.08F
-EAGLE CREEK   CLOUDY    70  46  42 W17G25    30.07F
KOKOMO +       MOSUNNY   72  47  40 W20G25    30.04F
MT COMFORT *+  PTSUNNY   68  46  45 W13       30.09S
SHELBYVILLE    CLOUDY    71  45  39 W14       30.08F

$$

INZ033-034-041-042-049-050-058-059-262300-
EAST CENTRAL INDIANA

CITY           SKY/WX    TMP DP  RH WIND       PRES   REMARKS
MUNCIE         CLOUDY    71  45  39 W14G26    30.05F
RICHMOND +     CLOUDY    68  46  45 W15       30.08F

$$

INZ060-061-067>069-081>083-085>088-262300-
SOUTHWEST INDIANA

CITY           SKY/WX    TMP DP  RH WIND       PRES   REMARKS
EVANSVILLE     PTSUNNY   76  49  38 NW5       30.11F
HUNTINGBURG *+ MOSUNNY   73  52  47 NW8       30.11F

$$

INZ062-063-066-070>080-084-089>092-262300-
SOUTH CENTRAL AND SOUTHEAST INDIANA

CITY           SKY/WX    TMP DP  RH WIND       PRES   REMARKS
BLOOMINGTON    CLOUDY    69  45  41 NW13G18   30.12F
MADISON *+     PTSUNNY   72  45  37 W7        30.13S
SEYMOUR +      CLOUDY    73  52  46 W10       30.11S

$$





USA.gov is the U.S. government's official web portal to all federal, state and local government web resources and services.